Theta_e
293 293 294 294 295 295 295 296 296 297 298 299 301 303 303 304 302 297 293 296 293 287 287 287 289 287 286 287 284 283 284 283 283 282 282 281 279 279 279 278 279 280 279 279 279 278 277 280 279 281 285 281 283 282
292 293 293 293 294 294 295 295 296 296 297 298 300 301 302 303 302 296 291 293 292 288 286 287 288 289 289 291 285 283 284 283 287 285 284 281 278 278 279 277 277 278 283 281 282 282 280 282 282 283 283 284 281 283
292 292 292 293 293 293 294 295 295 296 297 298 299 301 301 302 302 297 291 291 289 285 285 285 284 287 290 289 291 285 285 286 286 285 284 281 279 280 277 278 278 278 278 280 280 279 279 281 281 282 282 282 283 284
291 292 291 292 293 293 293 294 294 295 297 297 298 299 301 302 302 296 290 292 289 284 281 282 285 285 288 289 288 288 287 286 285 286 282 281 280 280 279 279 280 279 279 277 276 276 278 280 281 283 282 282 281 281
291 291 291 292 292 293 293 293 294 294 295 296 297 299 301 301 302 298 293 292 292 289 280 280 281 284 286 287 286 287 287 285 283 281 280 279 279 278 277 276 277 278 276 276 277 279 280 281 283 282 281 281 281 281
290 290 291 291 292 292 293 293 294 294 294 295 297 298 300 301 302 294 285 292 293 292 284 279 280 281 283 284 284 283 283 283 283 282 279 279 280 280 276 275 279 279 280 282 280 282 281 282 283 283 282 281 281 281
290 290 291 291 291 292 292 293 293 294 294 295 296 298 299 300 298 288 286 292 295 294 284 278 276 281 281 281 281 281 282 282 283 279 279 278 278 280 276 275 277 279 280 280 281 280 278 280 280 281 281 281 280 278
289 290 291 291 291 291 292 292 293 294 294 295 296 298 299 299 298 290 293 296 296 287 285 276 273 277 282 279 278 281 280 281 280 279 278 278 278 278 274 277 279 279 279 279 279 281 281 281 280 279 278 277 276 276
289 290 290 291 291 291 291 292 292 293 294 295 296 298 295 293 285 287 297 298 294 288 281 278 273 272 282 280 280 280 281 276 279 276 277 278 275 273 277 278 278 279 279 280 279 278 276 277 278 276 276 274 276 277
289 289 290 290 291 291 291 292 292 293 295 296 294 285 282 285 293 296 286 284 284 284 283 275 274 274 280 279 277 278 278 275 272 275 279 276 274 279 279 280 280 280 280 278 274 274 271 274 275 276 275 278 278 279
289 290 291 292 293 293 292 291 292 293 294 288 284 282 287 294 287 284 279 280 279 277 279 273 274 275 280 276 276 278 275 276 271 273 274 272 272 276 268 276 272 274 276 278 280 281 279 280 279 278 275 275 275 274
289 291 290 290 292 292 293 292 292 291 286 287 287 288 285 282 279 276 275 277 276 274 273 272 273 276 277 280 278 278 275 275 271 274 273 269 273 264 261 262 263 263 263 266 270 274 274 274 273 272 271 270 268 267
288 289 290 290 292 291 292 292 293 293 291 285 284 281 279 278 272 271 269 270 272 272 272 274 274 276 276 279 277 276 272 271 273 271 270 272 263 260 257 257 257 259 259 261 263 265 266 264 262 263 263 261 261 259
287 288 289 290 291 292 293 293 294 291 285 279 276 272 273 271 273 270 272 273 272 272 274 275 272 276 276 275 275 271 271 272 269 267 268 262 257 255 255 255 253 254 254 256 257 259 260 259 257 256 256 258 258 257
285 286 287 287 289 290 292 293 293 286 281 276 276 269 271 266 262 260 260 268 268 275 276 274 274 276 273 273 274 270 268 267 269 268 261 258 255 254 253 253 251 252 252 253 254 255 256 255 254 252 252 254 255 254
284 282 282 287 287 288 291 287 282 281 272 271 264 268 264 268 266 265 266 269 269 273 273 275 272 272 270 272 268 268 267 266 264 257 257 256 254 253 252 251 250 250 250 252 252 254 254 253 252 251 252 252 253 254
281 276 284 285 284 283 283 278 275 268 266 266 261 259 259 262 261 261 262 267 271 273 271 271 268 268 273 268 263 260 261 256 256 256 257 255 253 252 251 251 250 250 251 251 251 251 250 251 251 253 252 251 252 252
273 276 283 284 279 276 269 267 268 264 259 260 261 258 259 259 260 260 262 265 270 271 270 269 272 265 262 261 258 256 255 256 257 256 256 255 254 254 253 252 252 251 251 250 250 250 251 252 253 252 251 252 252 253
278 279 281 281 276 267 266 263 263 259 257 259 261 261 259 259 260 259 260 262 262 261 262 262 255 253 252 251 252 253 252 253 253 254 256 254 254 253 253 253 252 252 251 251 252 252 252 252 254 255 255 256 255 256
279 280 279 276 272 266 262 259 262 260 257 258 260 259 259 259 260 257 255 257 256 253 248 248 247 247 249 250 251 252 252 253 252 253 255 255 254 252 251 251 253 253 253 253 254 254 255 254 254 255 255 255 256 255
272 272 273 265 259 259 257 257 257 257 258 257 258 260 259 258 255 254 252 254 251 248 247 248 248 249 251 251 252 251 252 251 251 251 251 252 254 254 253 253 252 253 253 253 254 254 254 253 253 254 255 254 253 253
265 271 261 263 259 256 255 258 256 257 257 255 256 256 254 253 252 251 254 249 248 248 249 248 249 249 249 250 250 251 250 250 250 251 252 252 252 252 252 252 253 253 253 253 254 254 253 253 253 254 254 253 253 253
265 264 259 256 255 253 252 257 253 253 254 254 255 253 252 252 254 255 249 249 249 251 250 249 249 250 249 251 251 251 250 250 250 250 250 251 251 251 251 251 252 252 253 252 253 254 253 253 253 253 253 252 252 252
260 252 251 249 250 248 253 253 256 253 254 252 251 249 248 250 254 249 245 246 249 251 250 249 250 251 252 252 250 250 249 250 251 251 250 251 251 251 251 251 251 251 251 252 253 253 253 252 251 252 251 251 250 250
250 245 247 244 249 248 248 249 250 250 248 248 247 249 249 250 246 244 245 246 248 248 249 249 249 250 249 250 251 251 250 250 250 249 250 250 252 252 252 251 250 250 251 252 251 251 251 250 250 250 250 249 249 250
242 245 244 243 245 244 246 245 246 246 249 246 246 249 250 247 244 242 244 246 247 248 248 248 247 248 249 250 249 250 251 251 250 250 250 250 250 249 249 249 250 251 251 248 248 248 248 248 247 246 248 249 251 251
242 241 245 249 246 246 246 246 247 245 242 242 243 247 246 242 241 243 247 250 249 250 251 250 249 249 249 250 251 252 253 251 250 251 251 251 250 250 251 249 248 251 253 251 249 247 247 247 248 248 248 250 249 250
244 243 241 244 243 243 242 242 241 240 241 242 244 242 241 240 241 246 249 251 251 252 252 252 252 251 251 251 251 251 251 251 252 252 252 252 250 251 250 251 251 256 253 252 252 254 252 252 251 251 250 250 251 252
243 244 244 243 243 242 240 240 241 242 243 241 244 243 244 246 247 247 250 252 252 251 249 248 249 249 249 249 248 249 249 248 245 242 241 243 244 246 249 249 248 249 249 248 251 254 254 255 253 252 247 248 248 247
243 244 244 243 242 241 242 241 242 244 243 244 247 248 247 247 249 251 250 249 248 247 247 246 245 245 243 244 243 243 242 243 241 241 239 241 242 245 246 247 247 248 250 244 247 247 250 248 247 245 245 245 246 245
244 243 243 243 243 243 243 244 244 247 249 248 248 246 245 246 248 249 249 246 245 244 243 243 241 238 238 240 238 238 240 240 240 240 239 241 243 244 245 246 248 249 245 244 244 243 244 244 243 242 242 242 242 244
244 240 243 243 242 244 245 244 244 245 245 245 245 245 245 245 243 244 246 242 239 238 240 237 236 243 241 238 237 238 242 242 240 244 242 245 245 246 248 248 248 244 243 244 243 243 243 242 242 242 243 242 242 242
244 244 244 244 243 244 244 244 245 244 245 243 243 243 242 242 241 244 246 241 241 239 239 238 239 240 240 239 240 241 242 240 239 248 247 250 250 251 250 249 246 241 242 243 243 243 242 242 241 241 241 241 241 241
Wind_Speed
20 20 20 20 22 22 21 23 23 21 20 21 19 18 16 17 18 5 2 2 3 2 1 3 2 4 3 3 6 6 5 1 2 5 5 4 3 5 4 3 5 9 9 5 4 5 10 7 5 8 3 3 5 6
18 19 20 22 21 22 24 23 23 21 21 21 19 18 16 16 21 8 3 1 2 2 1 2 3 1 2 2 6 3 3 3 5 4 4 4 3 4 6 5 3 5 4 4 7 3 2 10 3 2 3 5 5 7
19 18 20 21 22 22 22 23 22 22 21 18 20 18 19 19 23 11 4 5 3 2 0 2 4 1 1 2 1 5 1 3 3 2 3 2 3 3 6 5 3 5 4 4 4 5 3 10 2 3 4 5 6 4
19 20 21 21 23 23 22 21 23 24 20 19 20 19 20 19 22 14 4 5 3 3 3 2 2 1 3 1 3 2 6 6 5 2 2 2 3 2 2 1 4 2 10 6 1 1 2 4 6 8 6 3 5 4
19 20 20 23 22 23 22 22 23 23 21 22 19 19 19 19 19 12 4 5 3 2 4 2 1 3 3 3 6 7 10 6 2 2 2 2 3 4 1 1 5 6 7 5 4 8 4 10 16 11 10 10 8 8
18 19 22 22 21 19 19 21 23 23 23 23 19 19 17 17 21 5 3 4 7 3 3 3 2 4 5 5 8 8 4 3 2 3 2 1 2 1 4 4 1 4 7 6 4 8 5 0 5 11 12 6 9 8
17 19 21 18 16 16 16 16 18 23 25 23 20 19 17 18 9 4 5 4 21 3 3 4 2 2 3 4 2 2 2 2 1 3 2 3 2 2 1 5 7 7 5 3 4 8 0 3 5 8 8 6 4 2
16 18 18 18 16 17 18 19 17 18 24 21 19 19 17 18 13 5 3 16 14 5 3 5 3 3 3 3 3 0 2 1 2 3 2 2 3 1 6 4 8 9 9 5 7 6 4 3 5 3 3 5 5 7
20 18 20 20 21 21 18 20 17 16 18 17 17 18 5 7 3 2 14 25 3 3 6 4 10 7 6 3 3 2 2 2 1 2 3 4 4 7 7 5 8 10 9 6 8 1 4 0 1 3 4 3 6 8
19 22 23 24 26 26 23 21 19 18 18 16 10 3 4 4 12 18 4 5 3 4 3 4 2 5 6 4 3 4 2 4 4 4 5 3 5 12 4 7 1 4 5 6 5 1 1 5 7 8 12 11 12 10
19 22 24 28 30 32 30 24 21 19 19 5 4 3 1 11 4 3 4 6 4 4 4 4 3 8 2 5 4 2 4 5 5 5 7 4 6 1 14 8 12 11 7 7 6 4 7 6 6 7 7 9 8 6
19 19 14 28 22 19 32 28 23 14 4 5 7 6 3 3 2 4 2 2 3 5 3 6 5 5 4 2 4 5 4 3 6 7 5 4 2 7 11 11 14 13 12 9 5 7 4 4 1 2 0 0 1 3
11 18 19 30 17 12 24 24 25 16 15 2 4 4 5 3 4 5 7 2 5 5 6 5 6 4 4 2 4 4 6 4 7 4 4 4 3 7 10 11 12 10 11 8 8 5 5 4 5 3 4 4 6 7
18 21 22 24 30 7 21 25 26 19 4 2 3 6 5 5 5 4 4 6 3 5 9 6 5 3 3 3 4 5 3 5 6 6 6 2 6 8 9 9 7 12 12 10 8 7 6 6 7 7 7 4 6 8
8 16 23 22 25 27 16 20 19 6 3 3 2 3 3 4 3 1 2 3 2 5 5 5 4 4 2 4 3 5 4 4 5 4 3 3 6 7 9 9 9 8 8 7 6 5 6 7 7 7 7 6 8 7
10 6 13 23 20 24 12 15 7 4 5 3 8 4 1 4 1 3 4 5 2 3 2 4 5 3 2 4 4 3 8 6 3 3 2 4 5 6 6 6 6 6 5 5 6 5 5 5 7 7 6 7 7 7
13 5 25 22 14 15 22 6 5 7 5 4 4 4 2 5 5 3 2 3 4 1 3 4 5 4 4 3 3 4 2 3 2 2 3 4 5 5 5 4 6 6 6 6 4 5 4 4 3 6 9 4 6 7
4 7 24 23 10 6 5 8 6 6 7 5 5 4 4 4 3 4 4 5 3 2 2 3 4 5 4 4 2 2 4 3 4 4 4 4 5 4 4 5 6 6 6 5 5 4 3 4 6 5 5 4 6 5
11 13 23 25 10 6 6 7 6 7 5 2 3 3 4 3 7 7 6 7 6 6 5 6 9 5 4 3 4 4 4 4 3 3 2 4 5 6 5 3 3 4 5 3 5 5 5 5 4 4 3 2 4 3
13 24 24 22 14 5 7 5 4 6 4 2 3 3 3 4 3 7 10 10 7 7 11 9 5 3 3 3 4 3 4 4 3 2 1 4 5 5 5 4 3 3 3 4 5 5 4 4 5 4 3 3 2 3
13 12 18 10 7 9 6 4 6 4 3 4 3 3 5 3 6 8 7 8 9 8 5 3 3 3 5 3 2 3 3 4 3 2 2 3 4 3 2 2 1 2 3 3 4 4 4 3 2 2 3 3 2 2
3 13 5 9 7 6 6 5 4 2 3 2 3 4 5 4 4 6 5 11 7 4 4 4 4 4 4 3 4 3 4 4 3 2 3 3 2 2 3 4 2 3 4 3 3 3 3 2 2 2 2 2 1 1
9 7 7 9 8 9 3 2 6 6 5 3 2 5 5 4 4 3 8 6 4 4 4 3 5 2 2 3 3 5 5 4 4 3 3 3 3 3 3 4 3 2 3 3 3 2 2 3 2 2 2 1 2 1
13 10 9 7 8 4 3 6 4 4 4 5 5 5 4 3 3 6 7 3 3 5 6 8 6 2 2 4 6 5 5 4 3 4 5 3 3 3 3 3 4 4 4 2 3 3 3 3 4 3 2 2 2 2
14 13 8 10 6 7 7 6 6 5 5 5 5 5 4 3 5 6 4 3 4 5 6 6 5 6 4 3 4 4 3 4 4 4 6 4 2 1 2 3 4 5 5 4 5 4 4 3 3 3 3 3 4 5
13 8 8 8 6 6 5 5 6 7 4 5 5 2 3 5 7 5 2 4 3 3 5 5 5 4 6 5 4 5 5 3 1 5 4 5 5 3 3 4 4 5 4 3 3 4 4 4 3 5 5 5 6 6
10 7 4 4 3 3 4 4 4 6 7 6 4 4 4 7 5 2 2 2 2 2 3 3 3 4 5 5 5 5 5 4 3 4 2 2 3 3 5 5 5 4 5 4 2 2 4 5 5 5 5 5 4 5
4 6 7 8 5 6 5 5 7 7 4 4 1 7 5 4 2 0 2 3 2 2 4 5 6 5 5 6 5 6 5 6 2 0 1 1 0 1 7 5 5 11 6 6 6 6 4 6 5 5 5 6 6 5
5 6 3 7 5 7 7 6 4 2 2 2 2 4 4 3 1 1 3 4 4 4 5 6 6 6 5 4 5 5 5 6 7 5 5 4 4 3 6 6 5 6 5 4 9 10 11 9 8 7 5 5 5 5
5 5 3 5 7 7 4 2 4 3 2 2 2 10 7 4 5 5 5 5 5 5 4 3 2 4 4 4 5 6 3 3 3 3 2 4 4 6 7 6 6 6 4 3 5 5 8 5 6 5 5 5 5 6
4 3 6 6 5 2 3 3 3 1 7 7 7 9 6 4 2 5 6 3 2 2 3 5 4 3 3 4 2 2 4 3 3 4 4 5 6 6 6 7 6 6 2 3 4 4 6 6 5 6 8 8 9 8
5 5 3 4 1 3 3 3 2 3 2 3 2 1 1 3 2 2 1 2 3 3 3 1 2 7 4 3 3 4 8 5 4 6 7 5 6 7 7 7 5 1 3 5 5 6 7 8 8 8 9 10 10 10
3 4 4 3 2 3 4 4 3 2 3 3 3 1 1 3 2 3 2 2 3 3 4 4 4 5 5 6 5 5 5 4 7 12 12 12 12 11 8 4 1 3 5 7 7 8 9 9 9 10 10 11 10 11
Wind_Direction
282 283 279 278 276 275 272 274 262 260 273 275 269 248 235 203 178 152 128 204 130 207 256 213 185 137 110 174 151 139 120 173 136 196 181 177 185 193 139 136 178 179 168 188 174 217 249 142 97 179 155 31 136 150
276 283 287 282 274 273 272 270 267 256 254 269 263 251 243 222 183 151 139 175 95 159 117 350 313 80 117 73 125 182 3 155 149 153 173 134 160 181 155 188 172 211 204 183 202 203 52 170 52 130 69 139 177 159
280 284 287 282 277 273 268 263 261 257 250 265 261 254 246 225 192 180 138 139 90 117 104 166 210 85 159 116 120 136 201 160 137 32 131 124 163 158 167 212 156 228 166 202 163 173 197 182 52 120 178 168 156 159
277 284 289 287 281 273 270 260 255 259 247 254 259 253 247 232 199 160 149 155 105 105 162 179 316 81 341 193 104 61 113 76 97 64 103 137 139 233 191 32 232 140 146 143 39 109 127 200 230 197 187 140 135 130
273 282 291 289 280 271 266 258 255 257 242 244 252 255 242 231 207 163 128 196 218 153 162 176 287 30 354 159 115 118 125 116 116 104 106 138 124 143 44 269 239 185 150 172 192 183 150 195 208 192 187 192 176 161
274 286 290 284 278 269 268 262 260 256 245 242 248 244 235 230 194 138 160 202 206 202 119 152 26 20 27 102 104 112 83 87 88 133 123 98 33 173 167 215 307 174 182 165 165 179 186 4 188 182 203 176 189 194
281 287 291 284 277 273 273 276 274 246 238 234 240 233 228 226 191 185 174 154 177 118 124 117 114 27 74 80 54 86 44 107 106 103 127 142 144 158 214 230 156 200 192 162 136 116 265 199 198 184 186 180 177 164
279 289 286 280 273 272 276 272 280 255 233 222 230 229 219 225 193 191 167 146 142 112 153 141 107 162 199 125 118 209 106 46 39 111 85 114 104 71 248 137 169 179 193 196 184 219 166 155 125 120 111 134 168 191
288 286 292 278 274 272 266 268 277 260 215 216 223 218 220 202 138 197 152 159 129 172 156 150 153 171 164 119 118 130 140 135 63 151 175 141 162 222 229 168 175 193 187 191 184 169 45 163 111 170 171 191 209 226
285 285 292 290 279 265 255 252 258 238 215 214 198 161 169 193 146 143 80 150 179 189 151 110 129 133 176 144 133 131 120 146 165 211 134 193 242 256 248 231 356 172 197 118 106 280 309 265 212 201 208 210 213 219
282 296 298 307 293 236 238 231 238 223 205 176 180 142 101 119 88 156 195 159 136 195 133 132 143 131 206 146 132 215 159 161 168 184 175 183 255 35 353 17 30 18 346 240 240 233 197 202 201 216 220 221 222 215
311 305 341 331 314 261 202 211 217 202 154 167 129 109 103 100 106 160 159 127 139 158 131 134 150 125 145 143 122 162 158 160 185 141 164 206 220 16 355 347 348 356 347 330 324 292 273 225 228 206 288 268 115 99
37 14 12 350 334 173 184 198 200 145 118 226 106 134 150 134 158 170 166 159 137 170 166 162 128 117 126 167 119 156 150 165 122 160 202 230 29 354 344 341 338 345 350 348 350 350 29 68 48 29 114 78 101 92
42 27 21 10 14 355 188 191 172 131 92 81 97 139 141 145 211 193 168 137 111 127 136 118 97 129 128 123 133 126 72 146 176 175 224 54 353 326 333 342 347 341 349 349 3 2 38 61 63 48 51 73 107 105
1 19 18 10 8 6 187 150 140 84 69 87 115 127 141 107 56 44 42 108 70 139 135 115 98 85 106 119 99 119 139 153 192 215 56 355 337 333 339 349 339 339 347 355 351 23 44 58 69 66 34 58 78 85
13 12 6 2 7 19 85 108 65 71 57 65 33 104 66 91 93 62 27 77 8 112 114 57 91 102 116 127 129 163 150 193 123 60 13 342 349 348 336 334 343 336 351 13 22 31 57 61 83 86 61 50 54 75
52 33 345 1 19 35 28 67 68 58 71 68 68 42 349 46 68 71 13 34 326 65 107 103 99 176 104 103 97 7 96 75 52 57 33 17 360 332 309 360 10 9 19 23 42 47 67 81 76 86 85 51 76 76
39 306 2 6 19 49 40 24 72 65 63 20 58 13 42 24 68 43 9 356 341 50 76 96 80 64 45 109 126 68 71 45 62 35 35 12 2 355 14 36 33 32 38 42 59 66 58 65 82 79 91 104 98 94
47 22 16 12 36 71 54 32 17 81 51 33 65 41 50 73 55 39 22 14 58 27 43 33 59 51 64 44 33 37 21 21 351 321 9 32 24 15 14 30 51 65 65 54 43 59 62 48 70 94 104 111 101 106
35 27 16 26 33 59 60 30 9 73 67 41 35 37 66 47 30 36 31 26 38 44 41 40 48 33 2 5 3 343 333 334 316 299 129 39 31 29 30 22 34 36 79 90 86 88 86 75 48 42 45 53 86 86
25 350 16 42 40 51 74 9 60 51 79 63 337 25 62 45 34 25 31 8 58 38 57 42 358 350 338 313 336 328 333 342 333 342 347 335 13 21 17 25 54 58 70 55 60 60 56 77 82 58 68 64 50 51
344 15 41 17 64 43 71 24 73 66 68 90 56 40 48 47 33 29 27 42 56 23 2 335 337 337 341 11 345 349 342 342 357 344 17 3 35 14 16 7 30 50 49 40 45 63 68 47 37 26 35 47 39 33
17 28 48 15 67 41 331 5 60 9 63 51 52 50 38 52 55 77 74 59 70 14 347 316 319 299 312 357 26 32 20 23 50 35 32 44 47 40 42 23 18 50 76 42 15 28 49 17 23 10 6 5 351 323
33 44 32 39 30 34 344 29 27 43 46 39 52 60 37 35 49 60 72 60 351 351 1 357 2 32 35 31 41 28 7 353 50 54 28 46 69 43 35 47 46 45 23 343 6 11 6 2 348 334 340 326 322 315
66 7 27 8 8 25 32 22 10 37 58 22 69 50 23 33 68 59 68 23 348 4 1 358 14 29 35 19 21 19 14 18 34 53 15 7 64 78 53 63 57 39 1 15 17 5 1 352 348 331 322 309 300 295
66 9 38 0 9 33 357 47 29 17 29 61 45 8 47 62 63 54 50 346 334 340 355 0 4 9 32 17 354 0 350 356 69 70 34 21 37 50 30 32 16 26 28 15 345 344 339 336 325 323 304 298 290 285
46 350 348 40 350 334 51 43 31 47 49 31 356 20 49 63 64 41 325 14 346 333 349 27 14 24 18 9 10 4 9 27 61 100 117 63 51 42 44 24 2 322 327 345 346 284 301 309 303 298 294 297 273 272
58 33 22 338 44 11 52 45 33 25 4 346 328 39 73 82 129 10 4 345 3 34 53 41 33 27 23 18 9 3 6 1 32 81 243 260 295 38 26 358 342 342 340 339 328 323 291 286 292 306 314 309 307 312
37 343 327 21 43 49 43 28 12 338 336 302 59 81 90 60 26 44 19 41 47 55 46 25 17 5 11 3 18 15 28 32 40 37 7 309 326 311 348 328 318 319 316 317 321 336 327 323 348 340 316 301 301 305
356 344 50 42 46 45 2 357 325 314 244 228 98 99 80 62 36 32 46 42 47 46 25 8 340 13 3 2 346 347 348 56 79 117 269 286 271 299 310 309 309 307 314 343 327 315 317 334 322 329 323 311 302 300
318 356 55 39 70 343 309 304 274 63 60 68 71 89 95 127 94 44 37 21 31 24 26 9 344 343 20 343 342 331 314 295 351 310 255 264 275 282 289 290 291 303 310 311 308 304 305 306 292 295 296 292 290 288
20 34 69 79 31 324 356 25 14 62 10 57 33 78 61 72 67 342 323 47 32 7 305 339 352 336 307 259 248 240 248 270 286 306 293 289 285 274 282 283 284 307 311 306 299 292 292 288 289 288 290 287 287 288
40 28 35 69 46 35 5 355 35 57 38 53 19 22 63 109 132 246 260 143 162 218 243 247 254 273 273 268 256 275 272 255 283 311 311 307 312 311 306 293 327 299 297 301 298 293 289 287 287 287 289 286 286 288